Regional Weather Roundup
Issued by NWS

Home | Current Version | Previous Version | Text Only | Print | Product List | Glossary On
Versions: 1 2 3 4 5 6 7 8 9 10 11 12 13 14 15 16 17 18 19 20 21 22 23 24 25 26 27 28 29 30 31 32 33 34 35 36 37 38 39 40 41 42 43 44 45 46 47 48 49 50
000
ASUS46 KSEW 061310
RWRWA

WASHINGTON REGIONAL WEATHER ROUNDUP
NATIONAL WEATHER SERVICE SEATTLE WA
600 AM PDT MON JUL 06 2015

NOTE:"FAIR" INDICATES FEW OR NO CLOUDS BELOW 12,000 FEET WITH NO
SIGNIFICANT WEATHER AND/OR OBSTRUCTIONS TO VISIBILITY.

WAZ505-507>509-061400-
SEATTLE, TACOMA, EVERETT, AND VICINITY

CITY           SKY/WX    TMP DP  RH WIND       PRES   REMARKS
EVERETT        NOT AVBL
BOEING FIELD   NOT AVBL
RENTON         NOT AVBL
SEATAC AIRPORT NOT AVBL
JBLM-MCCHORD   CLEAR     54  54  97 S3        29.99R
PUYALLUP       NOT AVBL
BREMERTON      NOT AVBL
JBLM-FT LEWIS  CLEAR     56  54  92 SE2       29.98R
TACOMA NARROWS NOT AVBL
$$

WAZ001-503-506-510-514-515-061400-
NORTH INTERIOR

CITY           SKY/WX    TMP DP  RH WIND       PRES   REMARKS
BELLINGHAM     NOT AVBL
FRIDAY HARBOR  NOT AVBL
PORT ANGELES   NOT AVBL
PORT TOWNSEND  NOT AVBL
NAS WHIDBEY    MOCLDY    61  52  72 CALM      30.00R
ARLINGTON      NOT AVBL
BURLINGTON     NOT AVBL
$$

WAZ020-022-039-040-504-511-512-061400-
SOUTHWEST INTERIOR

CITY           SKY/WX    TMP DP  RH WIND       PRES   REMARKS
SHELTON        NOT AVBL
OLYMPIA        NOT AVBL
CHEHALIS       NOT AVBL
KELSO          NOT AVBL
VANCOUVER      NOT AVBL
SCAPPOOSE, OR  NOT AVBL
PORTLAND, OR   NOT AVBL
$$

WAZ021-516-517-061400-
WASHINGTON COAST

CITY           SKY/WX    TMP DP  RH WIND       PRES   REMARKS
FORKS          NOT AVBL
HOQUIAM        NOT AVBL
ASTORIA, OR    NOT AVBL
$$

WAZ019-023-024-040-518-519-061400-
CASCADE MOUNTAINS AND COLUMBIA GORGE

CITY           SKY/WX    TMP DP  RH WIND       PRES   REMARKS
TROUTDALE, OR  NOT AVBL
THE DALLES, OR NOT AVBL
$$

WAZ026-027-041>044-520-521-061400-
EAST SLOPES

CITY           SKY/WX    TMP DP  RH WIND       PRES   REMARKS
OMAK           NOT AVBL
WENATCHEE      NOT AVBL
ELLENSBURG     NOT AVBL
YAKIMA         NOT AVBL
$$

WAZ028-034-035-061400-
COLUMBIA BASIN

CITY           SKY/WX    TMP DP  RH WIND       PRES   REMARKS
EPHRATA        NOT AVBL
MOSES LAKE     NOT AVBL
PASCO          NOT AVBL
HERMISTON, OR  NOT AVBL
$$

WAZ036>038-061400-
NORTHEAST WASHINGTON

CITY           SKY/WX    TMP DP  RH WIND       PRES   REMARKS
SPOKANE GEIGER NOT AVBL
SPOKANE FELTS  NOT AVBL
FAIRCHILD AFB  CLEAR     61  42  50 N6        30.06R
COEURDALENE,ID NOT AVBL
DEER PARK      NOT AVBL
$$

WAZ029>033-061400-
SOUTHEAST WASHINGTON

CITY           SKY/WX    TMP DP  RH WIND       PRES   REMARKS
PULLMAN        NOT AVBL
LEWISTON, ID   NOT AVBL
WALLA WALLA    NOT AVBL
PENDLETON, OR  NOT AVBL
$$



USA.gov is the U.S. government's official web portal to all federal, state and local government web resources and services.